Location: *
(47.6569°N, 7.4256°E)
Time: 09:46:00
(UTC+00:00)

ISS - Visible Passes

Search period start: 27 February 2021 00:00
Search period end: 09 March 2021 00:00
Orbit: 417 x 422 km, 51.6° (Epoch: 27 February)

Date Brightness Start Highest point End Pass type
(mag) Time Alt. Az. Time Alt. Az. Time Alt. Az.
27 Feb -2.2 03:52:11 36° ENE 03:52:11 36° ENE 03:54:21 10° ENE visible
27 Feb -3.1 05:25:09 13° W 05:27:58 43° N 05:31:13 10° ENE visible
28 Feb -0.3 03:06:35 12° ENE 03:06:35 12° ENE 03:06:50 10° ENE visible
28 Feb -3.3 04:39:33 38° WNW 04:40:25 50° NNW 04:43:42 10° ENE visible
01 Mar -2.5 03:53:54 39° NE 03:53:54 39° NE 03:56:14 10° ENE visible
01 Mar -2.9 05:26:51 10° WNW 05:30:02 40° N 05:33:15 10° ENE visible
02 Mar -0.5 03:08:13 14° ENE 03:08:13 14° ENE 03:08:45 10° ENE visible
02 Mar -2.9 04:41:10 27° NW 04:42:27 40° N 04:45:40 10° ENE visible
03 Mar -2.5 03:55:29 38° NNE 03:55:29 38° NNE 03:58:06 10° ENE visible
03 Mar -3.1 05:28:46 10° WNW 05:32:03 48° NNE 05:35:20 10° E visible
04 Mar -0.7 03:09:46 16° ENE 03:09:46 16° ENE 03:10:34 10° ENE visible
04 Mar -2.9 04:42:43 22° NW 04:44:28 42° N 04:47:42 10° E visible
05 Mar -2.7 03:57:01 39° N 03:57:01 39° N 04:00:03 10° ENE visible
05 Mar -3.6 05:30:34 10° WNW 05:33:56 78° NNE 05:37:18 10° ESE visible
06 Mar -0.9 03:11:19 18° ENE 03:11:19 18° ENE 03:12:26 10° ENE visible
06 Mar -3.4 04:44:17 20° WNW 04:46:23 59° NNE 04:49:42 10° E visible
07 Mar -3.1 03:58:37 48° N 03:58:46 48° NNE 04:02:03 10° E visible
08 Mar -1.2 03:13:00 21° ENE 03:13:00 21° ENE 03:14:22 10° E visible
08 Mar -3.8 04:45:58 20° WNW 04:48:08 76° SSW 04:51:29 10° ESE visible
